METEOR 2-5 DEB

Satellite information

Favourite Embed

Satellite Type and Status

DEBRISIN ORBIT

Key statistics

Satellite METEOR 2-5 DEB at a glance.

Uptime

16846

Days in orbit

Revolutions

≈ 14.3

Per day

Orbit

LEO

Low Earth Orbit

Inclination

81.2

Latest

Satellite identification and parameters

Extended collection of information and parameters for METEOR 2-5 DEB.

Object identification

Identified? True

Debris? True

Object name: METEOR 2-5 DEB

International designator: 1979-095CE

Object number (NORAD): 39603

Object ID (CCSDS): 39603

Country: COMMONWEALTH OF INDEPENDENT STATES (CIS)

Current information (Y/N): Y

RCS size: SMALL

Orbital parameters

Period: 100.539 minutes

Inclination: 81.2035 deg

SMA: 7162.255 km

Apoapsis: 789.392 km

Periapsis: 778.847 km

RAAN: 356.4967 deg

Eccentricy: 0.00073614

Argument of periapsis: 267.426 deg

Mean anomaly: 92.608 deg

Mean motion: 14.32280592 rev/day

Mean motion (dot): 0.00007704 rev/day2

B* drag term: 0.002849224 1/REarth

Two-line elements (TLE)

Creation date: Dec. 9, 2025, 5:08 a.m.

Reference frame: TEME

Reference center: EARTH

Epoch: Dec. 8, 2025, 6:41 p.m. UTC

TLE line 0: 0 METEOR 2-5 DEB

TLE line 1: 1 39603U 79095CE 25342.77860812 .00007704 00000-0 28492-2 0 9991

TLE line 2: 2 39603 81.2035 356.4967 0007361 267.4260 92.6080 14.32280592616190

Live tracking on map

Real-time ground track for satellite METEOR 2-5 DEB.

In-orbit conjunctions

A list of the most updated potential collisions computed for object METEOR 2-5 DEB.

Target Orbit TCA Probability of collision Miss distance Type
DELTA 1 DEB SSO 2025-04-05 00:51:39 0.0001813885 51.0 (m) DEBRIS
DELTA 1 DEB SSO 2024-12-26 00:03:33 0.0001027643 217.0 (m) DEBRIS

Associated space launch

Second generation soviet meteorological satellite

METEOR 2-5 DEB was lifted into orbit during the mission ‘Vostok 8A92M | Meteor-2 5’, on board a Vostok 8A92M space rocket.

The launch took place on Oct. 31, 1979, 9:25 a.m. from 43/4 (43R).

For more information about the launch, click the button.

Launch to space Vostok 8A92M | Meteor-2 5
Vostok 8A92M | Meteor-2 5

Agency: N/A

Status: Launch Successful

Launch date: Oct. 31, 1979, 9:25 a.m. UTC

Rocket: Vostok 8A92M

Launch pad: 43/4 (43R)

Location: Plesetsk Cosmodrome, Russian Federation

...

Latest news about this satellite

There are no fresh news available about this satellite. Check back as we update our databases every day.


Newsletter sign-up

Weekly statistics, charts and insights to help you stay on top of the space industry.